GW1852 Weather Reports


Display with metric or nautical units.
time (UTC)temp
F
wind
direction
speed
MPH
gust
MPH
rain 1hr
in
rain 24hr
in
rain mn
in
humidity
%
barometer
mb
20260903103027 53 275 0.0 0.0 0.00 0.00 0.00 67 1008.1
20260903101526 52 356 0.0 0.0 0.00 0.00 0.00 69 1008.1
20260903100025 51 19 0.0 0.0 0.00 0.00 0.00 70 1008.0
20260903094527 52 31 0.0 0.0 0.00 0.00 0.00 68 1007.8
20260903093022 53 269 0.0 0.0 0.00 0.00 0.00 68 1007.6
20260903091522 53 250 0.0 0.0 0.00 0.00 0.00 66 1007.6
20260903090020 54 240 0.0 0.0 0.00 0.00 0.00 66 1007.7
20260903084515 54 250 0.0 5.0 0.00 0.00 0.00 67 1007.4
20260903083012 54 261 0.0 1.0 0.00 0.00 0.00 64 1007.5
20260903081512 55 226 0.0 0.0 0.00 0.00 0.00 65 1007.6
20260903080010 55 247 0.0 0.0 0.00 0.00 0.00 64 1007.5
20260903074509 55 234 0.0 0.0 0.00 0.00 0.00 65 1007.7
20260903073011 55 232 0.0 0.0 0.00 0.00 0.00 64 1007.7
20260903071508 56 238 0.0 0.0 0.00 0.00 0.00 67 1007.7
20260903070007 54 249 1.0 4.0 0.00 0.00 0.00 71 1007.7
20260903064504 56 222 0.0 1.0 0.00 0.00 0.00 67 1007.7
20260903063004 54 329 0.0 0.0 0.00 0.00 0.00 68 1007.4
20260903061559 55 294 0.0 1.0 0.00 0.00 0.00 64 1007.2
20260903060122 57 285 0.0 3.0 0.00 0.00 0.00 65 1007.3
20260903054555 56 231 0.0 3.0 0.00 0.00 0.00 67 1007.2
20260903053054 55 235 0.0 6.0 0.00 0.00 0.00 69 1007.6
20260903051601 56 247 0.0 3.0 0.00 0.00 0.00 68 1007.9
20260903050050 58 266 0.0 2.0 0.00 0.00 0.00 64 1008.3
20260903044549 56 278 0.0 0.0 0.00 0.00 0.00 66 1008.7
20260903043048 57 268 0.0 0.0 0.00 0.00 0.00 65 1008.6
20260903041549 57 234 0.0 1.0 0.00 0.00 0.00 69 1008.6
20260903040059 58 262 0.0 1.0 0.00 0.00 0.00 69 1008.5
20260903034546 58 234 0.0 1.0 0.00 0.00 0.00 67 1008.3
20260903033046 58 240 0.0 3.0 0.00 0.00 0.00 70 1008.4
20260903031545 57 243 0.0 3.0 0.00 0.00 0.00 70 1008.5
20260903030044 57 22 0.0 0.0 0.00 0.00 0.00 68 1008.6
20260903024544 58 22 0.0 0.0 0.00 0.00 0.00 65 1008.1
20260903023053 59 351 0.0 0.0 0.00 0.00 0.00 62 1007.9
20260903021543 60 345 0.0 0.0 0.00 0.00 0.00 61 1007.8
20260903020042 61 335 0.0 0.0 0.00 0.00 0.00 57 1008.0
20260903014549 62 319 0.0 0.0 0.00 0.00 0.00 57 1008.2
20260903013048 63 340 0.0 0.0 0.00 0.00 0.00 57 1007.8
20260903011544 63 326 0.0 0.0 0.00 0.00 0.00 58 1008.1
20260903010046 65 60 0.0 0.0 0.00 0.00 0.00 53 1008.1
20260903004541 65 143 0.0 0.0 0.00 0.00 0.00 53 1007.7
20260903003041 66 304 0.0 0.0 0.00 0.00 0.00 44 1007.3
20260903001538 66 297 0.0 0.0 0.00 0.00 0.00 47 1007.2
20260903000040 66 303 0.0 0.0 0.00 0.00 0.00 45 1006.2
20260902234555 66 288 0.0 0.0 0.00 0.00 0.00 45 1006.7
20260902233041 65 283 0.0 0.0 0.00 0.00 0.00 45 1007.4
20260902231544 65 266 0.0 0.0 0.00 0.00 0.00 49 1007.6
20260902230037 64 282 0.0 34.0 0.00 0.00 0.00 50 1007.6
20260902221554 77 161 0.0 3.0 0.00 0.00 0.00 35 1003.5
20260902220100 78 202 0.0 15.0 0.00 0.00 0.00 35 1003.8
20260902214550 79 219 3.0 9.0 0.00 0.00 0.00 38 1004.0
20260902213049 80 229 7.0 11.0 0.00 0.00 0.00 36 1004.0
20260902211548 83 269 8.0 11.0 0.00 0.00 0.00 30 1004.1
20260902210044 82 272 4.0 9.0 0.00 0.00 0.00 31 1004.3
20260902204541 81 250 5.0 8.0 0.00 0.00 0.00 34 1004.8
20260902203038 82 230 0.0 4.0 0.00 0.00 0.00 32 1005.1
20260902201539 80 293 1.0 6.0 0.00 0.00 0.00 31 1005.3
20260902200035 80 238 1.0 7.0 0.00 0.00 0.00 36 1005.5
20260902194532 79 137 1.0 9.0 0.00 0.00 0.00 33 1005.7
20260902193029 79 248 3.0 7.0 0.00 0.00 0.00 33 1006.0
20260902191524 78 276 3.0 10.0 0.00 0.00 0.00 37 1006.1
20260902190022 77 278 5.0 8.0 0.00 0.00 0.00 38 1006.2
20260902184519 76 277 3.0 8.0 0.00 0.00 0.00 41 1006.4
20260902183018 76 251 4.0 10.0 0.00 0.00 0.00 41 1006.6
20260902181516 77 217 4.0 12.0 0.00 0.00 0.00 38 1006.8
20260902180011 76 264 4.0 9.0 0.00 0.00 0.00 41 1007.0
20260902174508 75 256 5.0 8.0 0.00 0.00 0.00 43 1007.2
20260902173018 74 243 0.0 2.0 0.00 0.00 0.00 47 1007.5
20260902171503 73 260 0.0 5.0 0.00 0.00 0.00 50 1007.5
20260902170059 71 209 0.0 1.0 0.00 0.00 0.00 56 1007.3
20260902164555 69 115 0.0 0.0 0.00 0.00 0.00 53 1007.3
20260902163054 69 122 0.0 0.0 0.00 0.00 0.00 53 1007.5
20260902161558 69 138 0.0 0.0 0.00 0.00 0.00 53 1007.6
20260902160051 68 264 0.0 0.0 0.00 0.00 0.00 52 1007.6
20260902154547 68 283 0.0 0.0 0.00 0.00 0.00 51 1007.8
20260902153046 67 280 0.0 0.0 0.00 0.00 0.00 52 1007.9
20260902151543 68 130 0.0 0.0 0.00 0.00 0.00 60 1008.2
20260902150041 68 136 0.0 0.0 0.00 0.00 0.00 55 1008.2
20260902144541 64 30 0.0 0.0 0.00 0.00 0.00 58 1008.3
20260902143040 61 51 0.0 0.0 0.00 0.00 0.00 66 1008.5
20260902141540 59 26 0.0 1.0 0.00 0.00 0.00 70 1008.5
20260902140043 59 16 0.0 2.0 0.00 0.00 0.00 72 1008.7
20260902134539 58 12 0.0 0.0 0.00 0.00 0.00 71 1008.7
20260902133039 59 1 0.0 0.0 0.00 0.00 0.00 67 1008.6
20260902131539 60 356 0.0 0.0 0.00 0.00 0.00 66 1008.4
20260902130042 60 21 0.0 0.0 0.00 0.00 0.00 62 1008.4
20260902124537 60 22 0.0 0.0 0.00 0.00 0.00 58 1008.5
20260902123039 60 22 0.0 0.0 0.00 0.00 0.00 59 1008.4
20260902121535 60 22 0.0 0.0 0.00 0.00 0.00 61 1008.5
20260902120035 61 22 0.0 0.0 0.00 0.00 0.00 62 1008.3
20260902114602 61 30 0.0 0.0 0.00 0.00 0.00 64 1008.0
20260902113041 59 23 0.0 0.0 0.00 0.00 0.00 66 1008.2
20260902111530 60 356 0.0 0.0 0.00 0.00 0.00 63 1008.5
20260902110038 58 286 0.0 0.0 0.00 0.00 0.00 64 1008.7
20260902104536 57 290 0.0 0.0 0.00 0.00 0.00 67 1008.8